Location: Villingen
(48.0639°N, 8.4609°E)
Time: 12:31:49
(UTC+02:00)

ISS - Visible Passes

Search period start: 13 May 2021 00:00
Search period end: 23 May 2021 00:00
Orbit: 417 x 422 km, 51.6° (Epoch: 13 May)

Date Brightness Start Highest point End Pass type
(mag) Time Alt. Az. Time Alt. Az. Time Alt. Az.
13 May -2.6 02:05:02 41° NNW 02:05:31 44° N 02:08:47 10° ENE visible
13 May -3.2 03:39:19 10° WNW 03:42:40 59° NNE 03:46:01 10° E visible
14 May -2.6 01:18:39 42° NNE 01:18:39 42° NNE 01:21:18 10° ENE visible
14 May -2.8 02:51:52 10° WNW 02:55:10 49° N 02:58:28 10° E visible
14 May -3.7 04:28:43 10° WNW 04:32:03 56° SSW 04:35:22 10° SE visible
14 May -3.3 22:50:35 10° SW 22:53:44 39° SE 22:55:35 20° E visible
15 May -3.2 00:27:09 10° W 00:30:30 58° NNW 00:33:50 10° ENE visible
15 May -2.6 02:04:22 10° WNW 02:07:38 44° N 02:10:55 10° E visible
15 May -3.9 03:41:15 10° WNW 03:44:39 80° SSW 03:48:01 10° ESE visible
15 May -2.8 22:03:34 10° SSW 22:06:25 26° SE 22:09:17 10° E visible
15 May -3.6 23:39:38 10° WSW 23:43:00 73° NNW 23:46:24 10° ENE visible
16 May -2.6 01:16:51 10° WNW 01:20:06 43° N 01:23:22 10° ENE visible
16 May -3.7 02:53:49 10° WNW 02:57:12 76° NNE 03:00:35 10° ESE visible
16 May -2.7 04:30:56 10° W 04:33:46 25° SW 04:36:35 10° SSE visible
16 May -3.9 22:52:11 10° WSW 22:55:33 83° SSE 22:58:56 10° ENE visible
17 May -2.6 00:29:18 10° W 00:32:34 44° N 00:35:50 10° ENE visible
17 May -3.2 02:06:22 10° WNW 02:09:42 59° NNE 02:13:03 10° E visible
17 May -3.3 03:43:17 10° WNW 03:46:27 37° SW 03:49:36 10° SE visible
17 May -3.7 22:04:50 10° SW 22:08:08 58° SSE 22:11:28 10° ENE visible
17 May -2.8 23:41:45 10° W 23:45:02 49° N 23:48:20 10° ENE visible
18 May -2.9 01:18:54 10° WNW 01:22:12 50° N 01:22:56 40° NE visible
18 May -1.0 02:55:46 10° WNW 02:55:49 10° WNW 02:55:49 10° WNW visible
18 May -3.1 22:54:11 10° W 22:57:31 58° NNW 23:00:52 10° ENE visible
19 May -2.6 00:31:24 10° WNW 00:34:40 45° N 00:36:31 22° ENE visible
19 May -1.7 02:08:17 10° WNW 02:09:26 20° WNW 02:09:26 20° WNW visible
19 May -3.5 22:06:40 10° WSW 22:10:02 73° NNW 22:13:25 10° ENE visible
19 May -2.5 23:43:53 10° WNW 23:47:08 43° N 23:50:21 10° ENE visible
20 May -2.9 01:20:50 10° WNW 01:23:17 44° NW 01:23:17 44° NW visible
20 May -2.6 22:56:20 10° W 22:59:35 44° N 23:02:51 10° ENE visible
21 May -3.3 00:33:23 10° WNW 00:36:44 59° NNE 00:37:12 52° NE visible
21 May -2.7 22:08:46 10° W 22:12:03 48° N 22:15:20 10° ENE visible
21 May -2.9 23:45:54 10° WNW 23:49:13 50° N 23:51:09 21° ENE visible
22 May -1.8 01:22:47 10° WNW 01:24:06 21° W 01:24:06 21° W visible
22 May -2.7 22:58:25 10° WNW 23:01:41 45° N 23:04:56 10° E visible
